Regional Weather Roundup
Issued by NWS Jackson, KY

Home | Current Version | Previous Version | Graphics & Text | Print | Product List | Glossary On
Versions: 1 2 3 4 5 6 7 8 9 10 11 12 13 14 15 16 17 18 19 20 21 22 23 24 25 26 27 28 29 30 31 32 33 34 35 36 37 38 39 40 41 42 43 44 45 46 47 48 49 50
571
ASUS43 KJKL 221410
RWRJKL

EAST KENTUCKY HOURLY WEATHER ROUNDUP
NATIONAL WEATHER SERVICE JACKSON KY
900 AM EST WED NOV 22 2017

NOTE: "FAIR" INDICATES FEW OR NO CLOUDS BELOW 12,000 FEET WITH
NO SIGNIFICANT WEATHER AND/OR OBSTRUCTIONS TO VISIBILITY.

* THESE REPORTS ARE NOT UNDER NWS QUALITY CONTROL AND MAY NOT
  REPORT WEATHER SUCH AS PRECIPITATION AND FOG.

KYZ079-080-083-085-087-088-110-112-115-119-120-221500
...EASTERN KENTUCKY...

CITY           SKY/WX    TMP DP  RH WIND       PRES   REMARKS
JACKSON        CLOUDY    35  27  72 MISG      30.22R
LONDON         CLOUDY    34  27  75 NE8       30.23R WCI  27
SOMERSET*      CLOUDY    32  28  86 NE10      30.28R WCI  24
MONTICELLO*    PTSUNNY   33  28  81 N13G22    30.29R WCI  24
WILLIAMSBURG*  CLOUDY    36  32  87 NW5       30.24R WCI  32
MIDDLESBORO*   CLOUDY    40  35  83 N5        30.21R
HARLAN APT*    CLOUDY    37  32  81 CALM      30.19R
PIKE CO APT*   CLOUDY    36  31  83 NW7       30.20R WCI  30
BIG SANDY APT* PTSUNNY   38  30  71 NW8       30.22R WCI  32
MOREHEAD APT*  SUNNY     34  27  75 NW3       30.28R
$$

KYZ035-036-041-042-044-050-067-078-099-221500
...CENTRAL KENTUCKY...

CITY           SKY/WX    TMP DP  RH WIND       PRES   REMARKS
MT STERLING*   SUNNY     32  28  86 N5        30.28R WCI  27
FLEMING/MASON* SUNNY     31  27  83 NW3       30.29R
DANVILLE*      SUNNY     32  27  80 N7        30.29R WCI  26
LEXINGTON      SUNNY     31  25  78 N6        30.28R WCI  25
FRANKFORT      SUNNY     31  23  72 NW5       30.29R WCI  26
LOUISVILLE     MOSUNNY   34  24  67 N8        30.33R WCI  27
LEBANON*         N/A     32  25  74 N7        30.30R WCI  26
GLASGOW*       SUNNY     33  26  75 N7        30.31R WCI  27
BOWLING GREEN  SUNNY     33  25  72 N7        30.33R WCI  27
$$

KYZ091>093-OHZ055-061-077-WVZ005-015-034-035-042-221500
...SOUTHERN OHIO/WEST VIRGINIA...

CITY           SKY/WX    TMP DP  RH WIND       PRES   REMARKS
COVINGTON      CLOUDY    31  26  82 NW6       30.28R WCI  25
COLUMBUS       CLOUDY    35  26  69 NW8       30.24R WCI  29
DAYTON         CLOUDY    33  23  66 N15       30.27R WCI  23
WILMINGTON     CLOUDY    31  28  89 N7        30.25R WCI  24
HUNTINGTON     MOSUNNY   36  27  69 NW8       30.24R WCI  30
CHARLESTON     CLOUDY    39  30  70 NW12      30.20R WCI  32
PINEVILLE*     CLOUDY    43  34  70 MISG      30.19R
BECKLEY          N/A     38  32  79 NW14G23   30.10R WCI  30
BLUEFIELD      CLOUDY    38  29  70 NW7       30.09R WCI  33
LOGAN CO APT*  CLOUDY    37  34  87 CALM      30.17R
$$

VAZ002-007-008-TNZ017-027-036-066-071-221500
...SOUTHWEST VIRGINIA/EAST TENNESSEE...

CITY           SKY/WX    TMP DP  RH WIND       PRES   REMARKS
WISE*          CLOUDY    36  34  93 NW9       30.14R WCI  29
JONESVILLE*      N/A     41  34  75 N3        30.20R
ABINGDON*      CLOUDY    44  33  65 NW5       30.13R
BRISTOL        MOSUNNY   47  37  68 N6        30.14R
MORRISTOWN*    SUNNY     45  34  65 N8        30.16R
SEVIERVILLE*   SUNNY     43  39  87 CALM      30.17R
KNOXVILLE      MOSUNNY   45  37  73 N10       30.17R
LAFOLLETTE*    CLOUDY    39  32  75 NE9       30.23R WCI  33
OAK RIDGE      SUNNY     45  37  73 VRB5      30.20R
CROSSVILLE     CLOUDY    36  33  89 N9        30.19R WCI  29
NASHVILLE      MOSUNNY   35  25  66 N12       30.30R WCI  27
$$

...KEY TO REMARKS...
VSB - VISIBILITY IN MILES
WCI - WIND CHILL INDEX
HX  - HEAT INDEX

$$




USA.gov is the U.S. government's official web portal to all federal, state and local government web resources and services.